Theta_e
327 327 327 328 328 328 327 326 326 326 326 326 326 325 325 326 326 326 326 325 325 324 324 324 323 322 323 324 325 326 326 327 326 323 324 326 326 326 325 325 327 327 320 314 314 312 311 312 312 313 313 315 318 321 321 321 321 323 326 326 322 322 323 323 323 321 320 320 318 319 320 320 319 318 317 317 318 318 319 320 322 323 327 336 338 337 337 336
327 327 327 328 328 327 326 326 325 325 325 325 326 325 325 326 326 326 326 325 325 325 324 324 323 322 322 324 325 326 326 325 324 322 324 327 326 326 326 321 321 322 316 312 311 310 311 311 311 313 313 315 318 320 321 321 321 322 325 324 323 324 322 321 319 318 320 320 318 319 320 320 319 318 317 318 319 318 318 319 321 324 326 333 338 337 337 336
325 327 327 328 328 327 326 325 325 324 324 325 326 326 325 325 326 326 326 325 325 325 324 323 322 321 322 323 325 326 325 323 322 323 325 327 327 327 325 318 315 314 312 310 310 310 311 311 310 312 313 314 316 319 320 321 320 320 323 323 324 323 320 318 317 317 318 319 318 319 319 320 319 318 317 317 319 318 319 318 320 323 325 332 338 337 336 336
325 326 325 327 327 326 326 325 324 323 323 324 325 325 325 325 325 325 325 325 325 325 324 323 322 321 322 323 324 325 324 324 325 326 326 327 328 326 323 317 312 311 311 311 310 310 310 310 310 311 314 313 314 318 318 319 320 320 322 322 322 320 319 317 315 316 318 319 318 319 319 319 318 317 317 318 319 318 319 318 318 321 325 332 338 336 336 336
325 325 325 326 326 326 325 324 323 322 322 323 324 325 325 325 325 325 325 325 325 324 324 323 322 322 322 322 324 324 325 329 329 326 327 327 328 326 321 318 313 310 312 313 311 310 310 311 311 311 314 313 314 316 317 318 319 320 320 320 319 319 318 315 315 316 317 318 319 319 319 319 318 317 317 317 318 317 317 318 318 319 324 332 336 336 335 335
325 325 325 325 325 325 324 324 323 322 322 323 324 324 324 325 325 324 324 324 324 324 323 323 322 322 321 321 322 322 326 331 324 321 327 326 328 327 322 321 316 310 311 313 311 311 311 311 311 312 313 312 313 315 315 317 318 319 320 318 317 317 316 314 315 316 317 318 319 319 319 318 317 316 317 317 316 316 315 318 322 323 325 331 335 335 335 335
325 326 325 324 325 324 324 324 323 322 323 323 324 324 324 324 324 324 324 324 324 324 323 322 321 321 320 319 320 320 324 329 319 316 322 324 327 326 321 320 315 310 311 311 311 312 312 311 311 311 312 312 313 314 315 317 317 318 318 318 316 315 314 314 314 314 315 317 317 318 318 317 317 316 317 317 315 316 316 317 322 326 327 331 334 333 334 335
325 326 326 325 324 324 323 323 323 322 322 322 323 323 324 324 324 324 324 324 324 324 323 322 321 320 319 318 320 320 322 326 320 313 316 320 324 321 318 317 314 311 310 310 311 313 313 311 311 311 312 312 312 313 316 317 317 317 317 317 315 314 313 312 313 313 314 315 315 317 317 316 316 315 316 317 316 317 319 319 321 326 329 332 333 333 334 335
325 325 326 325 324 323 323 323 322 322 322 323 323 323 323 323 324 323 323 324 323 323 322 321 321 319 318 319 321 323 322 322 318 313 315 317 320 318 315 316 315 312 310 310 311 312 313 313 311 311 311 312 312 313 316 316 316 316 316 316 315 314 313 312 313 313 314 314 314 316 316 315 314 314 316 316 317 319 321 321 322 326 328 331 332 333 334 335
325 325 324 324 323 323 323 323 322 322 323 323 323 323 323 323 323 323 323 323 322 322 321 321 320 317 317 318 321 324 323 322 318 313 315 316 317 317 315 317 316 313 311 311 311 311 313 312 311 312 312 312 312 313 316 315 315 316 316 316 315 314 313 313 314 313 314 314 314 315 316 315 314 314 316 316 317 319 320 320 322 323 325 327 330 332 333 334
325 325 324 324 323 323 323 322 322 322 323 323 323 322 322 322 322 322 322 322 322 321 321 320 316 314 318 317 321 324 320 321 319 313 315 315 315 316 315 317 316 313 312 311 312 311 312 311 311 312 312 312 311 313 315 315 315 316 315 315 314 314 314 314 314 313 314 314 313 315 315 314 314 315 316 316 315 316 317 319 320 321 322 325 328 330 330 332
324 324 324 324 323 323 322 322 322 323 323 323 323 322 321 321 321 322 322 322 321 320 321 318 312 314 318 317 321 322 316 318 318 312 314 314 313 314 314 315 314 312 312 312 312 311 311 311 311 311 312 311 311 312 314 314 315 315 315 315 314 314 314 314 314 314 315 315 313 315 316 315 315 315 316 315 314 315 315 318 320 319 321 324 327 331 330 329
323 324 324 323 323 323 322 321 322 323 323 322 322 321 321 320 321 321 321 321 320 320 319 313 311 316 318 317 319 318 315 317 317 314 315 315 315 315 314 313 313 311 311 312 312 311 311 311 311 311 311 311 311 311 312 313 314 315 315 315 315 315 315 315 315 314 315 315 314 315 316 317 316 315 316 315 315 315 315 317 320 319 319 322 326 330 332 329
323 324 323 323 323 322 321 322 322 323 322 322 321 321 320 320 320 320 320 320 319 320 317 310 312 318 317 317 317 314 314 315 316 316 315 316 315 314 314 313 312 311 311 312 312 312 311 311 311 311 311 312 311 311 312 313 314 314 314 315 317 317 315 315 315 314 315 314 314 314 315 318 317 316 315 315 315 315 315 316 318 319 319 321 326 330 332 330
323 324 323 323 323 322 322 322 322 322 322 322 321 320 320 319 319 319 319 319 319 319 315 311 316 318 315 316 314 312 313 313 315 315 314 314 313 313 312 312 312 311 311 311 312 312 312 311 310 310 311 312 312 312 312 313 313 314 314 315 318 317 315 316 314 314 316 314 313 314 315 317 316 315 314 313 314 314 315 315 317 319 318 320 326 329 330 330
322 323 323 322 322 322 322 322 322 322 321 321 320 320 319 319 318 318 318 318 318 317 315 315 318 318 315 315 313 312 312 313 315 313 313 313 313 312 311 311 312 311 311 311 311 311 311 310 311 312 311 311 312 312 313 314 314 313 314 315 317 316 315 315 314 315 316 314 313 313 315 316 315 314 313 313 313 313 315 315 316 317 318 320 324 326 327 328
322 323 323 322 322 322 322 322 322 321 321 320 319 319 318 318 317 317 317 317 317 316 315 316 317 316 316 314 312 313 312 314 314 312 313 313 313 312 310 311 311 310 310 310 310 310 309 310 311 313 312 312 312 312 314 315 314 314 314 315 316 314 315 315 314 316 317 315 313 313 314 316 315 314 313 313 314 314 314 315 316 316 318 320 322 323 323 324
322 322 322 322 322 322 322 321 321 321 320 319 318 318 317 317 317 317 316 316 316 315 314 313 314 319 320 314 312 314 313 314 314 313 313 313 313 311 311 311 310 309 309 309 310 310 310 311 311 312 312 312 311 311 313 315 314 313 314 314 314 314 314 315 315 315 316 315 315 314 313 315 315 315 313 313 314 314 314 315 315 316 317 319 320 320 320 321
322 322 321 321 321 321 321 321 320 320 319 318 318 317 317 316 316 316 316 316 314 314 314 311 313 321 321 315 314 314 313 314 314 312 312 312 312 311 311 311 310 310 309 310 311 310 311 313 312 312 312 311 311 311 312 314 313 314 316 314 313 315 314 315 316 315 315 315 315 315 314 314 314 315 315 313 314 314 314 315 315 316 317 317 318 318 319 320
322 321 321 321 321 321 321 320 319 319 318 317 317 316 317 317 318 318 316 315 314 313 313 311 312 317 317 315 315 315 314 314 314 313 312 312 312 312 311 311 311 310 310 311 312 311 311 314 313 311 312 311 311 311 312 313 314 314 315 314 314 317 314 314 315 314 314 315 315 316 315 315 315 316 316 314 314 315 315 315 316 317 317 317 318 318 320 320
322 321 321 320 320 320 320 319 318 318 317 316 316 316 317 317 319 319 316 315 314 313 311 310 312 315 315 314 314 314 314 313 314 313 312 312 312 311 311 311 311 311 311 312 313 312 312 314 313 311 312 312 311 312 312 313 314 314 315 313 313 316 314 314 315 313 314 315 315 316 315 315 316 316 317 315 313 314 315 315 316 316 316 318 318 319 321 319
321 321 321 320 320 319 319 318 317 317 316 316 315 315 316 316 317 317 316 315 314 314 312 310 311 312 313 314 313 314 313 312 314 313 312 312 312 311 311 311 310 311 311 312 313 313 312 313 313 311 312 312 312 312 312 313 315 315 316 315 314 316 315 314 314 313 313 313 315 317 317 316 316 316 316 316 315 314 315 315 315 316 315 317 317 318 320 319
320 321 320 320 319 318 318 318 317 317 316 315 316 315 316 316 316 315 315 315 313 313 312 310 311 312 313 314 313 313 312 311 314 314 312 312 312 312 312 311 311 311 311 312 313 314 313 313 312 312 312 313 313 312 313 314 314 316 316 314 315 318 316 314 314 314 313 312 314 317 317 316 315 316 316 316 315 315 316 316 316 317 317 317 318 319 320 320
320 320 320 319 318 317 318 317 316 316 315 315 315 315 316 316 315 315 313 312 312 311 310 311 312 312 312 313 313 314 313 312 314 314 312 312 312 312 312 311 311 311 312 312 313 313 313 312 313 314 313 314 313 313 314 313 313 317 319 317 317 318 317 317 315 313 312 313 314 314 314 316 314 314 315 315 316 315 316 318 318 321 321 320 322 324 324 322
320 319 319 318 318 317 317 317 316 316 315 315 315 314 315 315 315 315 314 314 313 311 311 313 314 312 312 313 312 313 313 312 314 313 312 312 312 312 312 311 311 311 312 313 312 313 313 310 312 315 314 315 315 313 316 317 313 314 321 321 317 317 318 318 316 314 313 315 316 313 314 319 318 314 314 314 315 316 316 319 319 321 324 325 325 327 328 328
319 319 318 318 318 317 317 317 316 316 315 315 315 314 314 314 315 315 315 316 315 312 311 313 314 313 312 312 312 313 312 312 313 313 312 313 313 312 311 311 312 311 312 313 313 314 312 308 311 316 316 318 318 314 317 319 312 311 320 323 317 319 322 321 319 317 316 316 316 314 315 319 318 315 315 316 317 317 317 320 320 319 321 323 322 322 325 326
319 318 317 318 317 317 317 317 316 316 316 316 315 314 314 314 313 313 316 320 318 313 311 311 312 313 312 312 312 312 313 313 313 312 312 313 313 311 311 311 311 311 312 313 314 314 311 309 313 317 317 319 317 314 316 317 313 315 324 326 321 323 326 324 322 321 318 318 316 315 315 317 317 317 317 318 318 317 317 318 319 318 317 319 319 319 320 321
318 317 317 318 317 316 317 316 315 315 316 316 315 315 315 314 312 313 316 319 318 314 311 310 310 313 312 311 311 311 312 313 314 314 312 312 312 311 311 312 311 312 312 311 314 315 313 313 316 317 317 318 317 318 322 318 314 320 325 325 322 323 326 325 322 320 317 317 318 318 316 316 319 320 318 318 316 316 317 316 317 317 317 318 319 319 321 322
317 317 317 317 317 316 316 316 316 315 315 315 315 315 314 312 312 314 315 316 314 312 311 309 309 312 312 311 311 311 312 313 314 313 311 312 311 310 312 312 311 313 312 313 317 317 315 313 315 317 316 317 317 321 327 324 318 321 323 323 324 324 324 322 321 320 316 317 321 322 317 315 320 320 316 316 316 316 318 315 316 318 318 320 322 322 323 324
317 317 317 317 316 315 315 315 315 315 315 315 315 314 313 311 313 314 314 314 312 311 310 310 310 312 312 311 311 311 312 312 312 311 311 311 311 310 312 312 311 313 316 320 320 314 311 310 314 319 315 315 316 316 321 325 321 322 323 322 323 322 320 320 321 318 317 321 322 321 318 314 318 321 316 316 317 317 317 316 319 321 321 323 324 323 321 322
317 317 317 316 315 315 315 315 314 314 315 315 314 312 311 311 313 314 313 313 313 311 309 310 311 313 311 311 311 310 311 312 311 311 311 311 311 310 312 312 313 316 318 323 321 314 311 311 314 317 312 313 316 315 317 319 319 323 325 322 320 319 318 318 318 316 319 323 319 317 320 317 317 319 316 316 316 315 315 315 318 320 321 323 322 320 319 319
317 317 317 315 315 315 315 315 314 315 315 315 313 310 310 311 313 314 313 312 314 312 310 310 312 313 312 312 312 311 312 313 312 312 312 312 311 311 312 313 314 316 316 319 320 318 316 314 315 316 312 313 318 317 316 315 316 322 322 319 319 320 319 318 320 319 321 321 315 314 318 318 318 316 314 316 314 314 315 317 320 320 320 323 321 320 320 320
317 317 316 315 314 314 315 314 314 314 314 313 311 310 311 312 312 314 313 312 314 313 311 311 312 312 312 312 312 312 314 314 312 311 312 312 312 312 313 314 314 315 314 317 319 320 319 316 316 317 313 313 317 315 315 315 316 319 319 318 320 321 318 318 320 319 319 318 315 314 316 318 318 314 315 316 312 314 317 321 325 322 320 322 321 320 321 321
316 316 315 314 314 314 314 313 313 314 313 311 311 312 313 313 312 313 313 313 313 311 310 311 312 312 312 312 312 312 315 315 312 311 313 313 313 313 313 313 314 314 314 317 317 318 319 317 316 317 315 315 316 316 318 318 315 317 319 319 320 320 318 319 319 321 323 319 313 313 316 319 318 315 317 316 315 317 316 319 324 322 320 321 320 319 321 321
316 315 314 313 314 314 314 313 313 313 312 310 311 312 313 313 312 312 314 314 312 311 310 312 313 312 312 313 312 312 315 315 313 312 313 313 313 313 312 312 313 314 314 316 316 314 315 317 317 316 317 317 317 319 321 318 315 317 320 320 321 321 322 321 318 319 322 320 317 316 319 321 318 316 317 317 317 316 313 315 319 320 322 321 320 320 321 321
315 314 313 313 313 313 313 313 312 311 311 310 310 312 312 311 312 313 314 313 311 311 311 312 313 312 312 314 314 314 316 316 314 314 314 314 313 314 313 312 313 313 313 315 316 314 315 318 316 315 316 315 314 317 319 317 317 318 319 320 321 322 324 322 316 314 316 318 320 319 318 318 315 314 317 317 315 314 313 314 314 317 323 323 322 324 323 323
314 313 313 312 312 312 313 313 311 310 312 312 310 312 312 313 316 315 313 313 311 312 312 312 314 313 312 314 314 315 318 317 314 314 314 314 314 314 313 314 314 313 314 315 316 315 316 318 315 316 318 314 313 316 318 317 318 318 320 320 317 318 321 318 314 315 316 315 317 318 316 315 314 314 316 315 314 314 314 314 312 316 322 323 326 328 326 324
313 312 313 312 312 312 312 312 311 311 315 316 313 312 312 315 319 315 312 313 312 312 313 312 314 313 313 314 314 315 317 316 314 315 315 313 315 315 313 314 314 313 315 316 317 318 319 320 316 315 317 314 314 318 317 315 316 317 318 318 316 318 318 315 313 317 320 315 315 317 315 314 316 315 314 315 315 316 315 314 314 317 319 322 328 328 324 323
313 313 314 313 312 312 312 312 311 311 315 317 314 314 315 317 317 314 313 313 313 313 313 313 313 312 314 315 315 315 316 315 315 315 316 314 315 316 313 314 315 314 314 315 318 320 320 323 320 314 314 315 315 316 315 315 315 315 315 316 317 319 318 317 315 316 320 317 315 317 316 321 324 318 314 316 317 315 315 314 315 315 318 322 326 326 322 324
313 314 314 312 311 311 311 311 311 313 315 316 313 315 318 318 316 314 313 314 314 314 313 314 314 313 315 316 315 315 315 316 316 315 316 315 314 315 313 314 315 314 316 317 320 320 316 323 324 315 313 316 316 316 317 316 314 313 314 314 315 315 315 319 318 316 317 316 316 315 316 325 325 316 314 315 316 318 317 316 317 317 319 322 325 325 325 327
312 314 314 312 311 311 311 311 312 313 314 314 313 317 318 317 316 315 315 315 317 318 316 315 314 313 316 316 315 315 315 316 316 315 316 315 313 315 315 314 315 314 316 318 320 320 315 319 321 315 314 317 318 317 316 317 317 316 314 314 314 314 315 318 318 317 316 315 318 315 317 328 324 313 315 314 314 319 318 318 321 319 319 321 323 325 326 328
313 315 314 312 311 311 310 312 312 312 313 313 315 318 318 316 317 317 318 316 318 321 318 315 315 315 316 316 316 315 315 316 316 315 317 315 313 315 315 315 315 314 315 316 318 321 321 321 319 316 316 317 317 316 313 315 321 319 315 317 316 314 315 316 318 321 318 314 315 313 317 331 327 315 315 314 312 315 314 315 319 318 318 320 322 325 325 325
314 314 313 311 311 310 311 313 313 312 313 313 315 318 317 316 317 317 318 317 318 321 319 316 316 315 315 316 316 316 314 315 317 315 316 317 316 318 320 317 314 313 315 316 317 319 322 323 320 317 317 315 314 315 314 315 319 318 317 319 318 315 315 316 319 322 320 317 317 313 314 324 326 319 316 315 313 313 313 313 314 315 317 320 321 324 324 323
314 313 312 311 311 310 311 313 312 312 314 314 315 318 318 318 318 317 316 317 318 319 318 317 316 316 318 317 316 316 314 315 318 316 316 319 319 319 322 319 314 314 314 315 315 315 318 320 320 319 319 318 317 316 316 317 316 317 318 316 316 321 319 316 317 317 318 322 322 317 316 321 323 320 318 315 314 314 313 312 312 315 318 320 320 321 321 320
313 313 313 312 311 312 313 313 312 312 313 314 315 317 318 319 319 319 320 320 321 319 318 320 320 319 321 320 317 316 314 316 319 318 319 321 319 317 320 319 315 314 317 320 316 315 320 321 319 320 320 319 319 318 318 318 315 317 321 317 316 321 320 318 318 316 318 323 321 317 319 320 317 315 314 315 315 314 313 313 312 313 317 320 321 322 321 320
314 314 313 312 312 313 314 313 313 312 312 313 314 315 316 316 316 319 321 320 321 322 320 321 321 320 320 319 318 316 315 318 321 320 320 321 319 318 318 319 318 317 323 325 317 317 323 320 315 317 317 315 316 316 318 320 317 316 319 319 318 320 319 318 318 318 319 322 322 320 320 318 316 314 313 314 316 315 314 315 314 312 316 320 322 322 322 321
315 314 313 313 313 313 314 314 314 313 312 312 313 313 315 315 315 316 317 317 318 321 322 319 318 318 318 318 318 317 317 321 322 320 320 320 317 315 316 319 321 319 320 319 316 320 324 319 317 317 317 317 319 319 319 319 317 316 317 318 318 318 319 319 318 317 317 319 319 320 319 317 315 316 315 316 318 316 315 316 315 313 316 320 321 321 320 320
313 313 313 313 314 314 314 314 314 313 312 312 312 313 314 315 315 315 317 317 318 320 322 319 318 317 317 317 318 317 318 319 320 319 320 318 315 314 314 317 317 317 316 314 317 321 319 316 319 318 316 320 324 324 322 319 317 316 316 317 317 317 318 318 317 316 317 317 316 316 319 318 315 315 317 318 318 317 316 316 314 313 315 318 320 320 318 317
312 314 314 313 314 314 313 313 314 313 313 312 312 313 314 314 313 314 317 317 317 320 320 318 317 318 318 318 317 317 318 317 317 319 319 315 314 316 317 315 314 315 316 315 317 319 316 315 319 317 315 319 321 322 323 322 319 319 319 318 318 317 317 316 316 315 316 317 316 315 317 317 315 316 318 319 320 319 318 318 315 314 315 317 319 319 317 317
311 313 313 314 314 313 312 313 314 314 312 312 313 313 313 313 313 314 316 315 315 318 318 316 317 317 318 318 317 317 317 316 317 318 317 314 313 315 315 314 313 314 315 314 314 315 316 318 318 316 316 317 318 320 323 323 322 321 322 322 321 319 317 316 315 315 315 316 315 316 317 316 315 319 320 321 322 320 318 317 315 315 315 316 318 317 316 317
305 306 308 313 315 313 312 313 313 313 312 311 313 314 313 312 313 314 317 317 315 315 316 316 317 317 318 318 316 317 317 317 318 317 316 315 313 314 316 315 313 313 314 315 314 313 316 319 318 317 318 317 316 320 321 320 320 320 320 324 324 321 318 316 315 315 315 315 315 316 317 315 314 317 321 321 319 317 317 317 315 314 315 315 317 317 316 316
303 306 310 314 315 313 311 312 313 313 312 311 312 313 313 313 314 315 316 317 320 318 317 317 317 317 317 318 317 318 321 321 319 317 317 316 314 317 321 317 311 312 314 314 315 314 315 317 318 318 319 318 318 319 320 320 320 318 317 319 322 320 318 316 316 315 314 315 316 316 315 313 314 317 319 318 316 316 317 316 314 314 315 315 315 315 314 314
Wind_Speed
43 45 47 48 46 46 45 44 43 42 41 40 39 39 37 36 35 33 32 31 29 29 28 25 23 22 21 20 19 17 16 14 12 11 11 15 18 16 10 8 13 13 6 3 6 5 6 9 11 8 7 5 3 2 2 2 1 1 1 2 3 4 3 3 3 3 6 6 5 8 7 8 7 3 3 3 2 5 5 5 6 8 8 8 13 22 26 26
41 45 46 48 48 46 45 45 43 42 42 39 38 38 38 37 35 34 32 31 29 28 28 26 24 23 21 20 18 17 15 12 9 10 17 21 20 19 14 9 11 11 7 1 3 3 4 5 11 9 4 3 2 2 3 2 2 2 2 2 4 4 1 1 4 4 4 8 7 7 7 6 8 7 4 4 5 6 6 6 7 8 7 7 13 20 23 24
42 46 49 48 48 47 46 45 44 43 41 39 37 37 38 37 35 34 32 31 29 28 28 27 26 23 21 20 17 16 12 5 4 11 22 25 21 20 17 14 12 10 8 4 2 3 4 5 12 10 4 3 3 2 2 2 2 3 2 2 4 3 2 5 7 5 4 8 9 7 6 4 8 8 3 5 7 7 6 6 8 7 8 8 11 18 20 21
45 47 51 49 47 48 46 45 44 43 41 39 37 37 37 37 35 34 32 30 29 28 28 27 26 24 22 20 17 15 8 1 5 15 25 25 22 21 17 18 15 10 10 8 2 1 3 6 10 8 4 4 4 4 3 3 2 2 3 2 4 1 3 5 7 6 5 4 8 8 6 4 7 7 4 6 6 6 6 7 10 10 12 12 11 16 19 19
47 47 49 49 47 47 46 45 44 43 41 39 38 37 37 37 35 34 33 31 29 28 28 27 26 24 23 20 17 14 8 2 6 15 25 24 23 23 19 20 16 10 11 10 3 3 4 5 6 5 3 3 4 3 3 5 3 1 4 2 4 4 2 3 5 5 5 2 6 7 6 5 5 5 5 7 5 4 3 4 9 10 15 15 14 16 17 17
48 48 48 48 48 48 47 46 45 43 41 39 38 37 37 37 36 35 33 31 29 27 27 26 25 24 22 19 17 13 8 3 1 5 20 23 25 28 24 22 18 11 11 10 3 4 5 3 4 3 2 2 5 5 5 5 4 2 5 2 4 5 2 2 3 4 5 2 6 6 5 5 5 3 5 6 2 3 2 3 3 7 18 21 18 16 14 14
49 50 50 49 50 50 48 46 45 43 41 40 38 37 37 37 36 35 33 31 29 28 27 25 25 24 21 20 16 9 8 9 3 2 12 21 26 29 27 24 21 16 12 11 5 3 4 0 4 4 3 3 5 7 6 3 4 3 5 2 3 5 4 3 3 2 5 4 3 4 6 6 6 4 4 5 3 6 4 5 8 13 22 21 16 14 13 15
49 49 49 50 51 51 49 47 45 43 42 40 39 38 37 37 36 34 34 32 29 28 26 25 25 24 25 22 12 5 8 10 6 7 7 18 25 27 27 24 22 19 15 15 10 4 3 1 6 5 4 4 6 6 2 2 2 6 5 1 3 4 4 3 3 2 4 3 3 4 6 5 4 2 2 6 5 7 6 6 7 12 18 15 13 12 12 14
50 50 49 50 52 52 50 48 46 44 42 40 39 38 37 37 35 34 33 31 30 28 27 26 25 26 27 19 9 5 9 11 5 5 6 19 27 30 27 24 23 21 17 17 14 9 5 2 6 7 5 5 8 7 2 2 3 5 3 2 3 3 4 3 3 3 2 1 2 3 5 5 4 2 2 7 6 8 7 8 6 8 10 10 11 11 12 12
52 51 50 51 53 52 49 47 47 45 42 40 39 38 38 37 34 34 32 31 29 28 29 26 25 28 24 14 9 6 6 12 11 2 7 22 30 32 27 24 24 21 17 17 16 10 6 7 8 5 3 4 6 5 2 4 3 2 2 5 4 3 3 2 2 4 2 2 1 3 4 4 3 1 3 4 7 9 8 7 6 6 7 8 9 10 12 13
53 52 51 53 54 53 50 47 46 45 43 41 38 38 38 36 34 33 31 31 30 29 28 25 29 29 18 11 10 6 4 11 15 6 9 21 29 32 29 26 25 22 17 16 17 15 14 17 11 5 2 3 5 4 1 3 3 2 4 5 3 3 3 2 3 5 2 3 3 3 3 4 2 1 3 4 6 8 9 8 7 7 7 7 8 8 10 12
53 52 52 54 54 54 52 49 46 45 43 41 39 38 36 35 33 32 31 31 29 30 27 27 33 25 13 9 8 6 6 9 14 10 9 17 24 27 27 26 26 25 20 16 18 23 21 17 10 6 4 2 4 3 3 2 1 2 4 2 3 3 2 3 3 4 2 2 3 2 2 1 3 5 6 7 5 5 7 8 8 7 7 7 7 7 7 10
53 52 52 55 55 53 52 50 47 44 43 41 39 38 36 34 32 31 31 30 29 29 26 31 33 18 9 7 6 7 5 8 15 13 12 16 20 19 20 23 23 22 21 16 14 21 20 13 7 6 4 3 3 3 5 4 2 4 4 3 4 2 3 5 3 4 2 1 1 1 0 4 8 11 7 8 7 6 6 7 8 7 6 7 7 6 6 9
54 52 53 56 57 55 53 50 48 45 43 42 40 38 35 33 32 31 30 28 28 26 27 35 28 11 7 5 6 10 5 7 13 15 17 17 19 16 14 19 19 19 19 14 8 11 17 15 6 5 3 2 1 3 5 3 3 3 4 4 3 2 3 5 5 6 3 1 0 3 1 5 5 8 7 6 8 8 7 7 8 7 6 6 7 7 6 8
56 54 54 54 56 55 54 51 47 45 43 42 41 38 35 33 31 30 28 27 26 24 28 32 20 6 6 3 6 12 7 7 12 15 18 19 19 14 12 18 18 17 17 12 7 6 12 13 6 3 2 0 1 2 4 2 3 3 4 3 4 3 3 3 3 6 3 1 3 2 1 4 1 5 6 4 5 6 7 7 8 7 7 7 6 7 6 7
57 56 55 53 54 53 53 51 47 45 43 43 42 38 36 33 31 29 27 25 23 25 26 22 12 5 4 3 7 13 10 8 13 15 16 17 15 13 15 17 15 13 11 8 6 3 7 9 3 2 2 1 3 3 3 3 3 4 4 3 4 4 3 2 1 3 2 3 4 3 2 2 1 3 4 3 4 5 5 6 8 8 8 8 6 6 6 6
57 57 56 55 53 52 52 50 47 46 44 44 43 40 37 32 30 27 25 25 23 24 20 11 10 5 1 4 8 11 11 11 15 16 15 14 12 17 20 12 10 12 7 5 5 3 5 7 2 1 3 3 3 4 4 5 4 3 4 3 4 6 5 3 1 2 3 3 5 5 4 3 3 5 5 4 5 5 5 6 7 7 7 7 7 7 7 7
59 57 57 56 53 52 52 51 49 47 46 46 44 41 38 34 31 27 26 27 23 17 10 4 9 4 3 9 9 11 16 18 18 18 16 14 14 19 17 10 11 13 8 4 3 4 5 4 3 3 4 4 5 6 5 4 4 4 3 3 4 6 7 5 2 4 6 4 4 6 5 7 5 5 6 6 7 7 7 7 6 6 7 7 7 7 7 8
59 59 59 56 54 53 52 52 52 49 49 48 46 43 38 31 26 22 24 24 16 10 5 8 12 4 3 13 11 11 22 24 18 16 16 15 15 16 12 12 13 11 8 4 4 6 4 3 4 5 5 6 7 7 7 4 5 6 7 6 5 4 4 3 2 2 5 4 5 7 7 9 8 6 6 7 7 8 7 7 6 6 6 6 7 7 8 8
60 61 61 57 55 54 52 54 53 53 52 50 50 41 27 21 14 11 15 14 12 8 4 12 13 2 4 11 13 17 22 22 15 13 18 17 17 15 8 9 9 6 7 6 5 6 5 4 5 6 6 7 8 8 9 6 5 5 7 8 7 5 2 2 2 1 1 3 6 7 6 8 8 7 8 8 7 7 8 8 7 6 6 7 7 7 8 8
61 61 60 59 57 55 55 56 54 56 54 55 52 25 11 18 10 9 16 10 12 9 1 16 16 3 6 15 20 24 17 12 11 12 19 20 16 13 7 7 7 5 6 7 6 5 5 6 6 8 8 7 9 9 10 7 6 6 4 7 6 5 2 2 2 2 1 1 4 7 7 8 8 8 6 8 9 8 9 9 8 8 8 7 8 9 8 7
61 60 60 61 58 56 57 56 56 58 54 53 39 11 11 16 1 10 20 7 9 13 5 19 19 3 10 16 20 21 14 10 11 11 15 17 12 9 6 7 8 6 7 7 5 4 6 6 6 10 9 6 8 10 8 4 4 6 2 3 4 3 4 2 2 1 1 0 2 2 4 8 8 8 7 6 9 9 10 11 10 10 9 8 9 9 9 8
61 61 61 59 59 59 58 58 58 57 50 44 26 8 20 18 5 23 21 6 7 10 5 18 15 6 11 11 11 12 11 13 12 10 16 16 9 6 8 8 8 8 9 9 7 5 5 5 5 8 8 5 4 7 7 2 1 3 4 1 2 2 3 0 1 1 0 1 1 3 3 6 6 6 7 8 10 8 9 12 11 10 11 10 10 9 9 10
62 63 61 59 62 59 59 61 55 50 47 41 26 15 24 20 20 34 16 7 8 3 3 17 12 8 9 7 12 10 7 11 10 11 18 16 8 6 9 9 9 8 8 10 10 7 6 3 1 3 6 6 4 4 6 4 2 4 4 2 1 2 3 2 3 3 2 1 1 2 4 5 6 7 9 9 10 10 8 10 10 10 10 9 9 9 9 10
64 64 62 62 61 60 65 57 43 42 40 33 27 21 23 23 20 22 8 6 8 2 2 13 7 7 9 9 14 9 6 8 7 13 18 14 11 8 6 7 7 8 10 11 9 7 5 2 0 4 6 6 5 4 5 5 3 4 4 3 1 1 6 7 5 5 2 2 2 2 1 6 6 9 11 8 8 10 9 9 10 9 8 7 8 8 8 8
66 63 64 64 61 66 59 33 30 41 30 24 33 26 22 27 20 12 4 5 5 3 6 9 6 9 11 10 10 7 7 6 2 15 21 13 11 7 5 6 3 5 11 9 5 3 2 1 0 5 7 6 6 5 5 6 4 3 4 3 2 5 7 8 6 4 3 3 2 2 4 5 4 5 9 8 8 9 8 8 10 8 7 8 9 8 7 7
66 64 66 64 66 68 40 17 33 38 18 23 39 26 17 22 17 8 2 3 4 6 7 4 4 11 11 10 11 7 7 5 4 12 17 10 8 3 4 8 4 5 8 5 2 1 3 3 1 4 6 6 6 4 5 7 5 3 3 2 3 8 7 7 6 3 2 1 2 1 2 2 4 5 5 3 7 7 6 8 9 8 9 10 10 9 9 8
66 67 66 65 71 61 30 26 36 21 15 34 39 24 16 15 10 5 2 5 5 5 6 3 3 9 9 9 12 4 4 10 7 7 11 9 6 2 2 9 8 6 6 6 6 1 2 5 5 6 6 4 5 2 4 7 4 3 2 3 2 5 6 6 5 2 1 3 2 4 2 0 5 6 3 1 4 5 7 9 11 10 10 10 10 9 8 7
67 68 66 68 65 43 28 38 33 15 26 42 32 21 14 8 5 2 2 5 4 5 7 5 4 8 9 9 12 5 5 10 5 3 8 7 3 1 1 7 8 6 3 3 5 0 1 4 4 7 6 4 4 1 1 5 4 4 2 3 5 4 4 4 4 2 2 1 4 6 5 2 5 6 4 2 4 6 8 8 8 9 10 8 7 7 6 6
68 65 66 68 51 29 28 34 28 26 37 38 26 20 12 5 4 4 5 6 5 5 6 6 6 10 13 12 11 9 7 5 4 6 7 5 3 1 1 2 5 7 4 5 5 1 1 1 0 2 3 3 5 2 2 3 5 5 4 5 5 5 4 2 1 3 2 3 5 5 6 4 3 5 5 4 4 6 6 5 2 4 6 6 6 6 6 6
67 63 68 64 41 31 27 20 25 37 42 38 26 17 9 2 2 5 8 5 6 6 5 8 11 13 18 16 10 12 9 4 8 12 9 6 5 4 2 3 4 5 3 3 4 1 2 2 0 1 1 1 4 3 3 2 4 5 4 5 4 3 4 4 2 2 2 4 3 3 2 2 3 5 4 3 3 4 4 3 4 5 6 6 6 6 6 5
65 64 68 55 34 32 25 19 33 42 43 41 26 12 7 4 3 3 6 6 6 7 8 12 16 16 19 18 11 12 10 6 9 13 12 9 7 7 7 6 5 5 5 4 3 2 3 2 2 1 2 2 4 4 4 4 2 3 4 6 4 1 2 1 2 2 3 4 3 3 3 2 5 6 7 7 4 5 4 4 6 7 7 6 6 6 5 5
64 64 59 45 31 29 26 31 42 41 39 36 20 6 5 7 7 6 6 7 7 10 12 13 18 18 18 15 10 11 9 7 10 12 11 10 8 7 8 7 8 6 4 5 4 3 2 1 2 2 1 2 3 4 3 1 1 3 5 5 5 3 2 2 3 2 3 3 3 4 2 2 4 5 10 14 8 4 5 5 6 7 7 7 6 5 5 5
62 61 48 36 28 25 31 40 43 41 37 25 11 7 8 8 9 9 8 6 6 12 14 14 17 18 16 12 10 11 8 7 11 12 10 10 8 8 9 10 12 8 4 6 5 5 5 2 2 3 1 2 4 2 4 5 4 4 5 5 4 4 3 4 3 3 4 1 3 3 1 3 3 3 7 9 3 4 4 4 6 7 6 6 4 3 5 5
59 53 39 29 25 26 38 43 41 43 33 15 7 8 10 10 9 10 9 5 7 12 14 17 18 16 13 9 11 12 6 5 11 11 9 10 10 10 10 10 14 10 6 6 4 5 8 4 1 1 1 2 3 2 1 6 4 3 3 4 3 4 3 3 2 3 3 1 1 1 2 5 4 5 6 4 4 3 1 2 4 5 6 6 3 5 5 5
52 40 31 25 23 30 43 43 40 40 26 11 10 8 8 9 7 8 8 7 11 14 17 18 14 13 12 7 10 12 4 5 12 9 7 10 9 10 11 9 12 13 8 6 4 4 6 2 3 1 2 1 1 2 2 2 2 2 3 3 4 3 5 4 1 0 3 1 3 3 3 5 3 7 7 4 4 1 2 4 5 6 6 7 5 5 5 5
41 28 23 21 23 31 40 42 40 34 17 8 11 11 8 6 3 6 8 9 12 16 18 14 10 12 13 8 11 14 7 7 12 8 7 9 8 11 13 9 12 15 11 7 3 3 6 2 3 1 1 1 0 1 2 1 1 3 3 4 2 2 3 2 1 1 1 2 2 4 5 5 3 4 3 2 3 5 5 6 6 5 6 6 6 6 6 6
32 23 15 17 24 30 36 40 36 21 6 5 11 12 8 4 2 7 11 12 14 16 14 11 9 11 12 11 11 14 12 9 10 8 7 8 6 10 14 9 10 15 11 6 4 3 6 4 3 2 1 1 1 1 1 2 2 3 3 2 2 2 1 1 3 2 2 3 3 3 6 4 4 4 2 2 6 7 6 6 6 6 6 6 6 7 6 5
26 15 7 18 26 27 35 38 26 9 2 6 10 9 6 4 4 9 14 15 14 14 12 9 9 9 10 11 11 13 13 10 10 8 6 7 4 8 15 9 8 14 11 6 4 4 5 4 1 2 1 1 1 0 4 2 1 1 1 2 2 2 3 3 3 2 2 3 3 3 2 3 5 6 6 7 7 8 7 6 6 7 7 7 6 7 6 6
15 7 5 23 29 28 35 31 15 6 6 9 9 5 4 3 4 10 16 17 11 7 9 10 11 10 10 11 11 12 10 9 11 7 5 7 4 7 13 9 9 13 8 5 4 3 3 3 3 0 2 1 1 2 4 5 4 2 1 2 2 1 2 1 2 2 3 2 3 2 2 5 5 3 3 4 3 3 4 6 6 5 6 6 6 7 6 6
9 6 7 25 34 32 32 19 8 9 8 8 7 3 4 4 6 11 15 17 9 0 4 11 12 11 11 12 12 11 8 8 11 7 4 8 7 4 7 8 11 12 7 5 4 3 1 3 5 3 1 2 1 1 1 1 4 4 4 5 6 4 4 2 3 2 2 2 3 3 3 6 5 2 3 2 4 3 2 3 4 3 5 5 6 6 6 6
6 6 11 31 41 36 25 10 8 11 7 6 5 1 4 6 7 10 11 13 8 1 2 8 10 10 10 11 11 12 10 8 10 9 5 8 9 4 5 9 14 13 9 5 3 2 2 5 5 3 1 2 1 1 1 2 1 2 1 3 5 5 5 5 4 3 2 1 1 1 3 6 5 2 4 3 2 2 1 2 3 3 4 5 5 5 5 5
4 7 17 35 44 33 17 9 10 8 4 4 2 2 3 5 7 8 8 10 7 3 4 7 9 10 8 10 11 12 12 8 10 12 7 7 8 2 3 10 14 12 9 5 4 2 3 5 4 3 2 1 2 1 1 2 1 1 2 3 5 5 6 5 4 3 2 2 2 2 4 6 5 3 2 3 3 1 3 2 2 2 3 5 5 5 6 6
5 7 12 27 37 26 11 10 13 11 8 5 3 2 1 1 6 8 10 9 5 5 7 6 9 9 6 8 10 12 14 8 8 10 6 6 5 5 2 11 15 12 7 6 7 5 3 4 5 4 2 2 2 1 3 3 3 2 2 3 3 3 5 3 1 2 1 4 6 5 5 6 5 5 3 3 3 3 5 4 3 2 3 5 5 5 6 6
8 5 5 14 23 16 5 5 10 12 11 8 7 7 3 2 2 2 7 7 2 5 7 4 7 9 5 7 8 10 13 7 5 7 5 5 2 5 2 10 14 9 3 5 9 7 4 5 5 5 5 5 4 4 4 3 3 1 1 2 3 4 6 4 2 2 3 5 6 5 5 6 5 5 3 3 3 4 3 3 3 1 2 5 6 5 5 6
9 5 5 7 8 8 4 3 4 10 13 11 8 7 7 6 2 4 4 3 2 4 6 3 7 9 7 10 10 10 13 5 4 6 6 5 3 2 2 5 8 4 3 9 12 7 3 3 5 7 8 9 8 6 6 9 6 5 6 7 8 8 8 6 3 4 5 4 4 5 7 7 7 4 4 6 4 5 5 4 4 4 4 6 6 6 5 5
5 7 11 10 7 8 6 6 6 9 14 14 9 9 10 11 6 2 3 1 2 3 4 3 8 10 10 13 11 10 12 6 5 8 8 5 3 1 2 4 6 4 4 10 10 6 4 3 6 8 7 5 3 4 9 12 10 12 14 13 13 12 11 8 6 9 8 5 6 9 9 11 11 7 6 7 6 6 6 6 7 6 6 6 6 6 5 5
3 6 9 8 7 9 8 12 14 13 16 16 9 10 13 12 11 7 1 2 1 3 2 2 8 13 16 16 11 9 11 7 5 9 8 5 4 4 4 5 5 3 2 6 4 3 5 5 6 8 7 2 5 4 7 10 8 9 11 13 14 12 12 12 13 14 10 7 10 13 13 15 13 7 7 8 7 8 7 7 6 6 6 6 6 7 6 6
2 3 3 1 2 5 6 11 14 14 18 17 9 11 17 17 16 11 4 4 3 3 3 6 10 13 15 15 10 9 11 10 8 8 6 6 6 5 3 3 2 4 3 5 2 2 3 4 6 8 7 5 3 4 5 7 5 5 7 9 10 11 13 14 15 17 14 12 14 15 15 15 9 6 8 8 7 6 4 5 6 7 8 8 7 7 7 6
2 2 5 2 2 7 9 10 12 11 13 14 9 10 15 18 18 11 5 8 11 8 6 10 14 13 13 14 11 10 13 14 11 10 10 10 7 5 4 4 3 2 3 4 2 2 1 3 5 7 4 5 4 4 5 7 5 5 6 6 8 11 12 14 15 15 13 13 15 14 13 12 7 7 7 5 4 5 5 6 7 8 8 8 8 7 7 7
0 1 3 4 4 10 13 12 12 12 11 12 11 10 13 17 19 14 5 2 8 11 10 12 15 12 10 13 13 13 14 13 12 13 14 14 11 7 4 5 9 7 3 3 3 1 2 2 3 6 4 6 7 8 7 5 2 3 5 6 10 11 11 12 13 12 11 11 13 11 10 12 9 5 5 4 5 7 7 8 8 7 8 9 9 9 9 8
1 2 1 3 4 8 13 11 11 12 12 13 13 12 12 14 15 14 7 2 2 6 8 11 14 10 9 12 13 10 9 8 9 10 9 8 8 6 5 7 13 12 8 6 4 3 5 4 4 6 6 7 6 8 7 6 4 5 8 10 12 11 10 10 10 11 13 12 10 9 11 13 8 5 6 6 7 8 9 8 7 6 8 9 10 11 10 9
Wind_Direction
212 208 206 203 200 199 197 196 196 194 195 196 193 192 191 190 190 191 190 190 193 192 193 193 194 198 198 200 201 201 201 198 198 195 206 228 231 229 228 202 201 211 203 277 288 303 345 344 318 300 296 288 187 210 176 178 243 138 233 223 237 240 207 195 167 132 137 136 149 168 168 141 143 156 125 168 124 119 141 114 87 72 75 82 102 123 134 144
217 208 205 203 199 197 196 195 195 195 195 196 193 191 190 189 189 189 188 190 191 190 191 191 193 195 196 197 196 193 189 189 198 207 223 231 234 231 218 183 176 186 171 61 353 41 40 340 322 323 309 279 214 179 156 181 186 182 248 231 233 236 275 1 86 79 117 143 155 163 181 159 146 158 142 164 160 140 145 146 134 105 96 100 117 129 135 145
222 211 203 202 200 196 196 194 193 194 193 194 193 190 190 189 188 188 188 189 189 188 189 190 191 193 194 193 188 183 175 172 232 237 233 231 231 223 204 180 164 162 162 133 60 62 61 317 313 317 306 282 259 198 173 173 179 219 237 246 248 188 85 31 74 67 55 130 148 156 187 178 144 147 146 180 169 162 178 168 156 146 143 144 138 140 143 150
221 214 204 200 197 194 195 194 192 192 191 192 193 191 190 187 187 187 188 189 188 187 187 189 191 192 193 190 184 174 147 40 261 242 236 230 223 209 188 177 161 155 172 159 156 29 27 321 310 309 299 288 273 240 220 179 166 195 200 240 289 291 85 42 60 59 34 111 144 147 166 154 136 136 151 191 175 174 202 185 177 172 153 152 154 150 154 158
216 213 204 200 198 193 194 193 190 190 189 190 192 191 189 186 186 186 187 187 186 186 185 188 189 190 192 187 179 161 118 24 253 237 236 230 216 203 186 177 165 159 169 161 162 35 29 333 309 304 295 280 281 269 238 212 190 216 234 241 342 340 67 63 52 44 5 62 126 136 154 134 117 126 172 204 194 175 225 184 177 171 153 155 158 154 160 166
213 212 204 201 198 193 193 192 188 188 187 187 189 190 187 184 184 184 185 185 184 185 183 186 186 188 187 175 168 162 152 209 303 218 222 219 207 199 189 177 171 174 164 149 137 52 59 349 295 263 247 273 285 273 259 228 177 243 251 194 24 2 50 53 59 31 351 66 129 143 141 112 117 153 200 221 190 135 39 43 81 130 147 152 153 154 163 171
210 210 205 200 196 192 191 190 186 185 185 185 186 188 186 183 182 182 182 182 183 182 182 183 183 184 173 156 159 174 200 223 308 348 209 205 200 193 184 175 172 180 170 141 129 68 87 26 265 251 238 254 275 257 264 267 167 229 258 168 64 46 64 32 69 34 11 53 98 130 124 123 159 177 198 210 142 119 92 52 56 101 132 143 147 159 170 175
207 205 201 198 194 190 189 189 186 184 184 184 184 186 185 182 181 179 178 180 180 180 182 180 181 177 161 152 153 183 218 224 287 326 216 191 187 179 171 173 174 175 173 152 146 139 108 199 242 246 241 229 266 260 248 333 224 233 264 130 115 90 92 74 87 79 51 50 22 86 121 118 150 128 163 207 154 126 113 78 76 106 127 140 149 166 173 176
206 201 197 195 191 189 189 188 186 185 183 182 182 184 183 180 179 176 175 177 177 178 179 177 177 167 158 157 156 188 219 218 255 330 201 178 171 170 168 175 179 175 171 156 153 158 141 216 242 245 256 250 271 276 194 175 257 234 236 99 124 112 115 129 111 104 83 84 52 109 139 90 91 112 218 218 161 129 117 97 102 120 136 148 154 169 173 175
205 200 197 194 190 188 189 187 184 184 181 179 180 182 181 178 176 174 173 174 174 175 176 175 168 159 159 167 170 201 217 204 220 281 176 175 167 172 178 179 179 179 168 153 155 159 169 220 246 266 286 294 281 284 193 184 287 285 154 88 101 105 113 184 128 124 125 106 155 190 148 92 82 176 240 203 149 136 125 120 134 139 154 161 157 170 174 176
202 200 197 194 190 187 187 185 183 182 179 176 177 180 179 176 174 172 171 172 171 173 174 170 160 157 166 179 178 194 150 176 207 203 164 175 172 176 186 187 184 183 167 151 161 173 198 219 239 293 291 306 305 292 252 207 313 20 121 90 104 120 106 190 133 140 160 117 197 225 102 87 83 197 222 155 145 152 141 144 160 159 164 169 164 165 173 180
199 197 195 191 188 185 183 183 182 181 177 174 175 177 175 174 172 169 168 167 168 172 172 164 159 157 165 185 196 190 147 164 189 180 153 167 173 177 187 193 190 185 169 155 174 187 199 210 227 267 256 302 323 288 291 283 295 144 163 129 144 163 151 183 144 150 185 133 199 232 54 129 187 220 205 150 146 160 155 159 167 177 170 166 170 163 171 183
196 194 192 188 185 183 181 179 180 179 175 171 171 171 170 170 169 167 165 164 166 170 168 162 158 157 167 186 204 192 172 176 181 171 150 155 165 171 187 192 187 184 174 164 178 193 200 196 209 258 272 293 306 292 305 300 252 182 214 216 153 190 205 178 135 136 156 80 247 73 110 232 215 215 189 146 153 153 174 177 165 183 179 167 171 166 175 186
193 189 187 185 181 179 178 176 177 175 170 167 166 165 166 167 165 163 161 161 163 165 165 163 157 157 188 179 181 190 185 176 179 169 159 156 153 154 175 179 175 178 176 172 168 188 203 201 216 278 280 255 276 315 311 294 258 195 211 230 173 176 194 168 146 157 157 340 245 91 190 257 227 188 151 143 159 152 177 186 169 177 179 176 171 168 178 188
190 185 182 181 176 174 174 173 172 170 166 163 161 161 162 163 161 159 157 156 157 161 163 163 160 157 192 195 182 185 174 169 179 174 171 163 150 144 159 167 171 176 176 178 165 165 195 194 207 259 252 154 144 270 283 241 251 225 204 218 198 185 167 158 160 175 163 133 191 140 218 266 342 126 130 147 162 162 183 183 173 173 174 179 174 175 179 185
186 182 180 178 174 172 171 169 168 165 161 159 158 157 157 156 154 152 152 150 149 156 157 162 181 196 191 187 171 175 171 173 182 177 172 166 155 145 147 154 160 168 174 180 180 170 178 179 188 240 219 171 176 215 259 229 225 234 214 191 195 197 165 167 228 211 155 117 188 226 251 246 199 140 139 154 169 177 198 197 183 175 175 178 176 183 186 184
181 179 179 176 173 171 167 165 164 160 158 156 152 150 150 149 147 144 143 142 141 148 150 159 190 203 240 157 153 173 172 164 171 167 159 161 158 146 141 136 135 142 140 150 178 184 172 176 168 191 202 193 176 190 228 224 207 218 221 212 208 197 170 160 213 237 182 156 194 217 244 256 199 159 161 184 181 177 205 221 204 182 175 175 175 183 189 192
179 177 176 173 172 169 165 162 160 158 155 150 147 145 143 140 140 136 134 134 129 134 140 164 180 189 241 181 174 179 165 153 158 160 153 150 151 149 144 137 131 130 120 117 161 174 180 181 165 187 201 193 187 194 212 212 196 192 191 226 238 206 184 167 169 179 177 203 211 186 224 258 226 168 176 195 184 182 204 216 217 204 184 176 178 184 190 195
178 175 172 170 169 167 163 159 156 154 150 144 141 136 131 129 129 131 139 143 139 144 173 189 182 188 176 176 179 168 156 150 149 151 150 143 148 153 143 139 138 135 139 150 183 182 181 156 173 203 200 198 200 203 217 221 216 202 184 206 222 201 190 154 140 168 155 188 220 189 208 241 238 207 188 193 189 189 202 203 208 211 199 191 187 190 193 196
175 172 169 167 167 165 160 157 154 152 148 141 136 130 126 131 132 139 157 174 187 184 173 175 188 275 85 144 140 133 141 147 144 147 157 152 149 152 139 138 142 147 159 159 174 179 176 171 193 207 195 200 205 209 226 240 269 242 195 200 207 180 174 97 92 296 128 162 220 219 223 235 241 233 200 183 187 197 200 197 199 205 205 205 200 199 197 199
171 168 166 164 165 162 158 157 154 152 151 145 140 137 150 155 155 170 169 194 218 233 224 163 185 269 96 128 130 130 134 147 145 145 158 156 150 152 149 153 153 168 178 158 146 150 177 199 199 196 204 208 201 212 234 250 301 295 209 185 210 196 167 52 81 203 184 107 223 223 237 246 241 247 224 168 174 203 201 193 200 206 207 207 206 207 204 203
167 165 162 162 163 160 158 157 155 154 151 148 148 150 174 173 300 159 159 158 216 251 268 163 182 200 118 137 144 141 137 146 149 144 157 161 163 168 159 169 168 166 181 163 136 147 190 215 194 189 210 217 200 207 222 244 302 313 322 164 213 199 131 67 47 124 152 161 253 211 235 255 249 251 250 195 191 205 198 197 202 203 208 211 205 205 204 200
165 161 160 161 161 159 158 157 155 154 152 154 159 156 173 183 116 140 147 85 165 235 231 163 177 163 135 150 164 158 147 150 153 155 168 169 173 177 160 174 181 169 184 177 158 170 189 210 198 187 198 196 193 191 184 189 292 294 315 291 215 158 130 175 174 121 337 160 56 6 309 267 263 260 251 231 225 220 202 203 203 199 207 210 204 199 196 194
162 160 160 159 159 158 157 155 154 157 159 160 160 156 174 176 139 145 141 58 145 215 184 168 170 150 147 155 167 176 163 156 154 158 174 174 160 165 166 174 181 177 191 181 169 180 182 186 212 167 179 179 163 167 170 173 226 252 255 262 291 170 129 72 143 135 7 355 115 13 329 281 241 234 241 232 227 228 215 206 205 205 207 206 205 203 195 192
160 159 159 158 158 157 155 154 157 163 162 160 160 160 173 174 162 161 140 86 146 33 177 180 177 153 147 148 165 173 154 156 155 157 172 181 166 160 170 178 187 185 184 181 177 185 190 206 185 150 169 176 164 180 182 169 204 257 229 213 305 156 120 103 133 133 68 279 228 123 324 282 236 214 229 222 212 223 215 202 205 207 205 202 209 213 205 201
159 158 158 158 156 154 153 155 164 163 158 165 170 163 167 179 190 198 151 102 150 143 165 175 177 164 147 148 169 159 156 169 133 155 165 181 180 168 173 174 187 190 178 180 190 184 163 3 94 165 166 168 173 201 193 168 185 237 245 223 137 100 111 128 154 149 136 226 285 119 176 263 285 246 239 207 193 215 208 202 211 204 203 208 213 216 207 205
159 157 157 158 157 156 155 155 161 161 159 172 171 167 179 191 205 227 146 113 170 162 158 161 182 173 155 163 172 152 160 149 79 161 169 174 175 155 179 172 166 194 171 151 197 200 111 98 79 153 148 162 179 204 193 171 177 215 292 307 129 120 130 147 157 178 186 134 341 324 169 262 291 279 276 169 173 216 212 211 223 214 207 210 214 217 212 209
158 157 157 159 160 159 155 150 156 163 169 166 167 176 192 197 211 240 138 150 166 145 149 146 154 162 150 167 179 160 123 136 130 181 177 168 166 66 169 178 169 171 157 154 187 233 99 153 173 153 143 174 182 196 191 168 171 225 282 357 75 123 143 148 150 187 33 63 300 263 177 310 268 254 276 136 179 236 231 217 221 214 209 207 204 203 200 196
157 157 159 159 160 160 154 154 157 163 163 161 167 181 181 177 197 216 149 166 149 123 146 139 133 159 151 165 183 171 126 152 155 147 152 159 189 3 155 183 161 130 86 123 162 262 2 177 176 155 158 176 157 35 289 165 169 211 175 63 48 60 87 125 148 141 72 60 247 232 190 197 277 252 225 193 212 232 234 232 224 206 197 188 175 168 155 143
158 158 159 158 158 156 151 155 159 157 159 162 168 169 155 152 183 164 176 181 147 143 153 148 163 167 158 163 182 177 160 164 128 115 141 156 187 220 23 172 145 119 72 61 90 90 283 184 6 134 168 165 126 77 357 134 138 143 128 82 61 49 43 43 108 107 99 251 244 226 200 191 278 262 205 186 214 217 219 236 224 143 144 139 132 134 132 130
158 158 159 159 158 155 148 150 158 157 161 165 160 148 138 150 208 168 170 157 124 142 147 149 159 164 167 169 177 181 169 126 130 144 157 164 172 184 169 167 137 116 130 95 82 93 57 59 65 38 273 181 116 82 19 51 111 106 116 113 82 31 33 23 347 97 170 247 258 301 306 186 236 257 229 194 184 177 182 189 167 139 127 126 124 124 130 137
159 159 160 160 155 155 153 148 155 158 163 163 151 138 153 158 199 189 153 144 147 165 168 163 162 167 175 171 165 176 162 130 157 161 160 166 175 182 184 182 150 134 169 158 121 113 76 88 141 56 304 222 138 103 41 1 20 95 132 129 114 90 65 39 254 193 219 249 263 315 334 248 234 253 263 265 235 182 175 152 154 158 144 135 133 130 142 155
159 159 159 158 152 154 154 148 154 159 159 154 144 150 178 158 184 191 153 163 169 163 166 166 164 164 169 167 161 169 157 143 169 168 161 165 166 183 199 189 169 171 175 147 134 130 92 336 169 115 330 233 171 146 130 198 230 162 154 139 143 147 132 204 213 202 233 266 291 291 295 267 270 263 250 253 249 182 151 130 127 136 137 138 143 147 164 174
158 157 154 153 150 150 151 151 158 160 151 146 146 169 174 168 187 185 168 178 157 150 157 155 154 158 165 169 163 166 159 148 166 165 160 165 168 186 200 191 183 182 150 139 158 167 164 226 203 153 169 181 179 187 153 149 163 185 165 141 164 172 163 191 189 193 210 246 318 307 277 202 213 256 242 231 212 107 108 116 115 117 126 130 142 181 198 188
155 155 150 146 144 146 152 155 161 158 148 145 162 172 180 179 183 181 171 163 148 148 149 148 150 155 167 170 160 167 169 153 167 168 165 175 182 184 189 191 186 181 161 156 172 173 175 208 276 200 251 166 172 261 116 121 141 212 148 120 192 205 153 149 183 188 163 111 286 252 255 220 207 273 268 185 125 98 124 166 156 156 147 135 164 208 197 177
151 149 147 145 143 148 157 161 160 157 152 151 163 182 202 187 175 174 162 150 156 150 143 149 155 156 164 166 160 170 177 156 168 170 174 185 191 187 187 191 185 186 181 159 150 162 168 207 324 333 342 59 160 295 343 114 166 185 139 156 202 165 113 119 235 278 104 177 236 182 255 276 271 285 276 160 143 199 205 218 219 203 165 146 177 195 176 163
147 146 149 152 152 153 161 165 160 158 159 161 174 188 196 195 184 156 145 138 148 147 143 152 165 164 166 166 169 171 161 155 170 173 176 183 195 191 188 192 187 192 192 157 155 190 149 115 333 25 58 357 203 37 7 336 121 124 153 191 182 102 80 121 209 333 73 233 241 171 212 251 230 267 305 120 191 230 220 216 213 202 173 165 183 183 172 167
145 146 148 155 157 155 161 164 160 157 159 180 194 193 178 193 204 149 144 141 146 151 153 156 165 174 172 164 167 168 160 163 175 177 172 180 202 188 183 191 187 193 192 139 134 197 132 102 340 1 64 258 341 80 152 312 19 119 162 167 112 146 232 154 181 218 186 219 269 231 223 232 203 216 260 218 217 221 216 201 187 190 187 182 179 166 163 159
141 141 142 158 158 154 158 162 159 154 189 194 199 195 167 166 173 152 146 144 148 154 158 158 159 172 176 164 158 163 167 170 170 173 176 181 208 188 180 183 180 189 189 141 141 182 134 120 231 319 336 157 9 302 186 199 12 70 76 56 77 157 177 167 197 210 168 197 258 278 257 248 229 216 221 224 216 201 193 189 197 202 193 188 177 163 164 164
144 141 135 159 159 154 154 155 155 174 204 196 193 180 140 131 159 155 146 144 148 158 163 163 161 164 166 160 156 161 169 166 165 179 189 171 180 195 187 178 168 178 171 116 126 149 112 99 136 154 348 123 160 237 194 183 176 160 111 122 143 144 112 108 260 208 139 178 238 265 282 263 252 238 215 205 176 158 163 178 203 205 180 174 161 157 170 169
150 142 140 159 158 152 150 149 169 191 199 196 193 174 146 142 148 152 149 146 143 51 167 162 166 164 158 158 159 162 163 160 169 185 185 170 175 205 200 174 159 161 141 105 125 153 118 86 118 140 154 164 209 318 346 226 183 171 176 174 178 168 128 134 260 223 133 163 200 203 258 269 266 327 26 87 105 91 88 147 175 163 143 150 146 150 166 164
148 147 146 157 158 155 152 159 186 188 194 189 184 141 146 150 142 145 149 147 139 44 144 161 168 162 158 163 160 159 163 161 174 183 186 182 180 193 203 166 154 157 151 136 150 166 101 90 105 123 143 177 250 320 328 285 183 123 222 183 161 162 157 169 210 221 198 205 158 158 263 272 271 353 23 16 58 83 47 99 125 124 127 142 142 130 124 128
147 127 133 152 160 161 158 168 179 186 206 185 130 70 139 147 139 142 147 148 147 145 145 156 168 164 164 165 156 161 168 165 176 183 180 170 172 224 219 160 149 154 152 140 155 152 97 102 109 90 59 345 307 274 276 280 178 160 250 201 162 178 185 178 185 175 171 191 156 170 253 263 282 334 350 311 319 287 256 229 145 124 117 132 135 121 113 112
127 104 117 152 166 173 172 171 177 184 189 173 122 120 187 102 135 152 156 152 151 157 150 151 164 164 161 157 155 167 172 168 179 184 174 159 168 321 282 157 150 156 164 167 173 172 145 137 124 106 100 10 350 300 281 260 213 207 230 195 159 141 137 136 148 119 182 213 177 173 240 252 276 316 321 285 276 259 247 218 175 149 127 134 134 125 124 124
128 94 85 152 173 189 204 183 184 183 175 161 148 157 156 70 79 144 145 139 112 138 139 138 148 139 124 133 140 167 177 171 164 171 159 140 146 331 307 158 156 164 181 154 151 149 149 154 143 139 159 178 196 212 208 184 184 325 9 160 172 154 140 145 169 166 228 229 181 181 240 258 295 321 311 285 268 250 236 183 172 207 160 148 148 146 144 146
139 116 111 142 184 218 253 283 209 183 172 165 161 167 154 132 74 1 91 112 337 114 114 109 133 123 129 145 141 169 183 161 105 153 150 126 128 323 316 143 140 132 108 134 140 130 118 159 172 177 188 194 203 204 157 131 143 190 200 187 188 194 182 163 144 185 214 216 201 223 237 253 278 276 259 269 253 235 229 176 178 216 195 169 163 164 163 152
144 152 156 153 176 204 229 250 217 184 177 173 169 169 158 144 138 33 34 28 250 138 92 97 148 148 160 162 154 171 177 140 104 149 144 115 106 73 16 52 76 67 100 139 145 121 113 175 190 195 213 204 177 183 158 150 169 192 195 193 194 193 184 176 193 211 204 190 230 239 227 237 247 221 218 249 235 219 220 196 191 196 189 179 161 153 152 134
155 168 171 161 168 183 199 207 199 184 176 177 172 161 157 151 154 159 96 35 178 178 105 115 176 174 169 166 159 162 165 146 141 159 145 123 124 107 42 32 47 9 57 133 137 96 130 182 185 188 222 212 85 94 155 170 190 196 194 198 197 191 183 186 209 219 205 192 231 235 224 233 241 211 207 228 214 207 212 196 179 164 171 179 159 153 159 148
137 135 172 242 210 172 164 178 180 173 173 178 177 167 166 165 165 163 132 112 156 218 178 159 183 182 170 167 160 158 170 171 172 172 143 122 134 126 90 65 57 358 37 119 138 25 134 184 171 167 208 222 136 114 148 174 201 210 208 202 188 187 192 198 213 223 216 215 231 237 237 242 237 197 211 227 209 196 178 148 151 161 177 180 163 162 173 174
134 119 163 183 191 164 154 157 163 164 175 182 184 179 176 172 167 158 138 156 169 189 192 173 176 176 169 170 168 174 187 181 172 168 144 132 151 157 148 159 145 42 39 121 146 345 151 192 161 146 190 236 204 171 167 176 194 217 224 206 176 181 198 209 219 225 223 229 240 247 257 262 242 191 205 216 163 133 127 151 180 184 180 173 165 173 184 192
270 353 167 162 145 158 163 167 166 164 173 186 189 182 180 179 171 153 126 167 170 174 184 172 163 162 165 174 183 188 190 179 166 166 157 152 165 168 154 158 149 139 139 153 151 141 161 177 136 130 180 234 219 204 190 160 145 258 248 215 187 182 194 209 217 220 215 224 242 251 257 258 244 191 187 186 149 153 172 188 200 199 181 171 173 186 196 199
309 1 84 130 123 157 168 168 168 170 179 188 185 175 176 178 167 149 133 10 62 147 164 156 149 152 163 180 193 188 164 144 137 146 147 135 131 124 117 143 150 152 160 160 152 150 151 153 144 150 189 234 220 193 173 107 57 283 247 215 200 197 201 209 219 224 216 212 225 233 237 245 234 177 197 213 184 186 199 196 196 198 190 186 187 193 200 198